Location: Laverne
(36.7100°N, 99.8930°W)
Time: 17:57:33
(UTC-06:00)

Cosmos 1356 - Pass Details

Date: 19 October 2017
Orbit: 454 x 456 km, 81.1° (Epoch: 22 November)

Event Time Altitude Azimuth Distance (km) Brightness Sun altitude
Rises 07:03:29 0° 205° (SSW) 2,452 6.9 -10.2°
Reaches altitude 10° 07:05:39 10° 215° (SW) 1,585 5.9 -9.8°
Maximum altitude 07:08:51 35° 282° (WNW) 754 4.0 -9.2°
Drops below altitude 10° 07:12:05 10° 350° (N) 1,598 6.0 -8.5°
Sets 07:14:18 0° 360° (N) 2,476 7.1 -8.1°
